Lexington Weather

Lexington, Massachusetts, USA

54°F
12/10/2019 4:22pm 
  • Lexington Conditions: Light rain, Overcast
  • Temperature: 54.0°F / 12.2°CColder 0.9°F than last hour.
  • Dew Point: 52.5°FDecreased 0.4°Fsince last hour.
  • Relative Humidity: 95%Increased 2.0% since last hour.
  • Wind: Wind from WSW WSW 1 mph, 10-min avg: 3 mph, gust: 8 mph
  • Barometer: 29.72 inRising 0.05  inHg/hr Rising Slowly
  • Visibility: 10 miles
  • Rain Today: 0.04 in
  •   

Regional Weather Roundup
for Boston / Norton, MA

        
000
ASUS41 KBOX 090510
RWRBOX

REGIONAL WEATHER ROUNDUP
NATIONAL WEATHER SERVICE BOSTON/NORTON MA
1200 AM EST MON DEC 09 2019

NOTE:  "FAIR" INDICATES FEW OR NO CLOUDS BELOW 12,000 FEET WITH NO 
SIGNIFICANT WEATHER AND/OR OBSTRUCTIONS TO VISIBILITY.

MAZALL-090600-
EASTERN MASSACHUSETTS
  
CITY           SKY/WX    TMP DP  RH WIND       PRES   REMARKS
BOSTON         CLOUDY    41  30  65 SW17G25   30.31F                  
BEVERLY        FAIR      38  29  70 SW7       30.31F                  
LAWRENCE       FAIR      33  26  75 S3        30.32F                  
BEDFORD        FAIR      37  28  70 SW10      30.30F WCI  30          
BLUE HILL      NOT AVBL                                               
NORWOOD        FAIR      41  30  65 S8        30.33F                  
MARSHFIELD     FAIR      39  34  81 SW9       30.34F                  
PLYMOUTH       FAIR      42  34  73 S9        30.34F                  
TAUNTON        FAIR      28  24  85 CALM      30.34F                  
NEW BEDFORD    FAIR      44  34  67 S12       30.34F                  
$$

MAZALL-090600-
CAPE COD AND THE ISLANDS
  
CITY           SKY/WX    TMP DP  RH WIND       PRES   REMARKS
FALMOUTH       CLOUDY    43  36  75 S15       30.37F                  
HYANNIS        MOCLDY    44  36  73 S12G20    30.36F                  
CHATHAM        FAIR      42  37  82 S10       30.40F                  
PROVINCETOWN   FAIR      44  37  76 S18G28    30.35F                  
NANTUCKET      MOCLDY    45  38  76 S15       30.41F                  
MARTHAS VNYRD  FAIR      45  36  70 S15G25    30.38F                  
$$
 
MAZALL-090600-
CENTRAL AND WESTERN MASSACHUSETTS
  
CITY           SKY/WX    TMP DP  RH WIND       PRES   REMARKS
WORCESTER      CLOUDY    32  28  85 SW10      30.29F WCI  24          
FITCHBURG      FAIR      38  30  73 SW10      30.29F WCI  31          
ORANGE         MOCLDY    36  29  75 S15       30.28F WCI  27          
SPRINGFIELD    MOCLDY    29  24  82 S7        30.31F WCI  22          
WESTFIELD      CLOUDY    31  24  75 S5        30.32F WCI  26          
NORTH ADAMS    CLOUDY    39  27  62 S9G35     30.22F                  
PITTSFIELD     FAIR      35  28  75 S10G18    30.23F WCI  27          
$$
 
RIZALL-090600-
RHODE ISLAND
  
CITY           SKY/WX    TMP DP  RH WIND       PRES   REMARKS
PROVIDENCE     MOCLDY    34  30  85 S3        30.36F                  
NEWPORT        MOCLDY    47  36  65 S13G21    30.35F                  
BLOCK ISLAND   FAIR      46  37  71 S18G25    30.36F                  
SMITHFIELD     FAIR      35  31  85 SW5       30.34F WCI  31          
WESTERLY       FAIR      48  37  65 S10       30.36F                  
$$
 
CTZALL-090600-
CONNECTICUT
  
CITY           SKY/WX    TMP DP  RH WIND       PRES   REMARKS
BRADLEY INTL   CLOUDY    30  21  69 CALM      30.33F                  
HARTFORD       FAIR      28  23  81 CALM      30.33F                  
BRIDGEPORT     MOCLDY    36  33  89 NW3       30.34F                  
DANBURY        CLOUDY    29  27  92 CALM      30.33F                  
GROTON         CLOUDY    47  39  74 S12       30.34F                  
NEW HAVEN      CLOUDY    38  35  89 CALM      30.33F                  
CHESTER        FAIR      37  36  93 CALM      30.32F                  
MERIDEN        FAIR      26  24  92 CALM      30.33F                  
WILLIMANTIC    FAIR      20  16  84 CALM      30.35F                  
OXFORD         MOCLDY    34  32  92 W3        30.32S                  
$$

MEZ002-015-021-024-NHZ003-005-008-011-012-014-VTZ005-008-090600-
NORTHERN NEW ENGLAND
  
CITY           SKY/WX    TMP DP  RH WIND       PRES   REMARKS
PORTLAND ME    CLOUDY    36  23  59 SW9       30.30F WCI  29          
BANGOR ME      CLOUDY    37  27  67 SW13G23   30.22F WCI  29          
CONCORD NH     CLOUDY    29  20  69 S7        30.27F WCI  22          
MANCHESTER NH  MOCLDY    33  25  72 S6        30.27F WCI  28          
NASHUA NH      FAIR      30  30 100 VRB6      30.28F WCI  24          
PORTSMOUTH NH  CLOUDY    33  24  71 SW6       30.28F WCI  27          
JAFFREY NH     CLOUDY    34 N/A N/A S10       30.24F WCI  26          
KEENE NH       CLOUDY    35  30  82 S10       30.26F WCI  27          
BURLINGTON VT  CLOUDY    35  21  56 S23G35    30.12F WCI  23          
MT. WASHINGTON BLWGSNOW  21  21 100 W63G74      N/A  VSB 0   WCI  -3  
$$

NYZ052-076-090600-
EASTERN NEW YORK
  
CITY           SKY/WX    TMP DP  RH WIND       PRES   REMARKS
ALBANY         CLOUDY    37  23  56 S15G24    30.24R WCI  28          
NEW YORK CITY  CLOUDY    44  34  67 SW3       30.33F                  
$$
 
ANZALL-090600-
MARINE OBSERVATIONS
  
STATION/POSITION TIME  TEMP    WIND        PRES    VSBY  WAVE
                       AIR SEA DIR/SP/G                  HT/PER
                 (UTC) (F)     (DEG/KT/KT) (MB)    (MI)  (FT/S)
BOSTON BUOY      0450   42 47  190/ 17/ 21 1026.1F         2/ 4
BUZZARDS BAY     0400   47     200/ 25/ 27 1028.9F
NANTUCKET SOUND  0430   44                   N/A
MASS BAY-STELLWA 0404   41 46  230/ 21/ 23 1025.7F  1 7/8  4/ 5
ISLE OF SHOALS   0400   38     220/ 21/ 24 1026.4F
S OF BLOCK IS    0500      51                N/A           5/ 5
$$

......................KEY.........................
  SKY/WX - SKY CONDITION/PRESENT WEATHER
  TMP    - TEMPERATURE IN FAHRENHEIT
  DWPT   - DEWPOINT IN FAHRENHEIT
  RH     - RELATIVE HUMIDITY IN PERCENT
  WIND   - DIRECTION AND SPEED IN MPH
  PRES   - MEAN SEA LEVEL PRESSURE IN INCHES OF HG
  WCI    - WIND CHILL INDEX
  VSB    - VISIBILITY IN MILES
  HX     - HEAT INDEX
  TC     - TEMPERATURE IN CELSIUS
  VRB    - VARIABLE WIND DIRECTION
  N/A    - NOT AVAILABLE
  
      

Other recent Regional Weather Roundups

Tue Dec 10, 4:01pm

Tue Dec 10, 3:10pm

Tue Dec 10, 3:01pm

Tue Dec 10, 2:10pm

Tue Dec 10, 2:01pm

Tue Dec 10, 1:10pm

Tue Dec 10, 1:00pm

Tue Dec 10, 12:10pm

Tue Dec 10, 12:00pm

Tue Dec 10, 11:10am

Tue Dec 10, 11:00am

Tue Dec 10, 10:10am

Tue Dec 10, 10:00am

Tue Dec 10, 9:10am

Tue Dec 10, 9:01am

Tue Dec 10, 8:10am

Tue Dec 10, 8:00am

Tue Dec 10, 7:10am

Tue Dec 10, 7:00am

Tue Dec 10, 6:10am

Tue Dec 10, 6:00am

Tue Dec 10, 5:10am

Tue Dec 10, 5:00am

Tue Dec 10, 4:10am

Tue Dec 10, 4:00am

Tue Dec 10, 3:10am

Tue Dec 10, 3:00am

Tue Dec 10, 2:10am

Tue Dec 10, 2:01am

Tue Dec 10, 1:10am

Tue Dec 10, 1:00am

Tue Dec 10, 12:10am

Tue Dec 10, 12:01am

Mon Dec 9, 11:10pm

Mon Dec 9, 11:01pm

Mon Dec 9, 10:10pm

Mon Dec 9, 10:00pm

Mon Dec 9, 9:10pm

Mon Dec 9, 9:01pm

Mon Dec 9, 8:10pm

Mon Dec 9, 8:01pm

Mon Dec 9, 7:10pm

Mon Dec 9, 7:00pm

Mon Dec 9, 6:10pm

Mon Dec 9, 6:00pm

Mon Dec 9, 5:10pm

Mon Dec 9, 5:01pm

Mon Dec 9, 4:10pm

Mon Dec 9, 4:01pm

Mon Dec 9, 3:10pm

Mon Dec 9, 3:01pm

Mon Dec 9, 2:10pm

Mon Dec 9, 2:00pm

Mon Dec 9, 1:10pm

Mon Dec 9, 1:00pm

Mon Dec 9, 12:10pm

Mon Dec 9, 12:00pm

Mon Dec 9, 11:10am

Mon Dec 9, 11:00am

Mon Dec 9, 10:10am

Mon Dec 9, 10:00am

Mon Dec 9, 9:10am

Mon Dec 9, 9:00am

Mon Dec 9, 8:10am

Mon Dec 9, 8:00am

Mon Dec 9, 7:10am

Mon Dec 9, 7:00am

Mon Dec 9, 6:10am

Mon Dec 9, 6:00am

Mon Dec 9, 5:10am

Mon Dec 9, 5:00am

Mon Dec 9, 4:10am

Mon Dec 9, 4:00am

Mon Dec 9, 3:10am

Mon Dec 9, 3:00am

Mon Dec 9, 2:10am

Mon Dec 9, 2:00am

Mon Dec 9, 1:10am

Mon Dec 9, 1:00am

Mon Dec 9, 12:00am

Sun Dec 8, 11:10pm

Sun Dec 8, 11:00pm

Sun Dec 8, 10:10pm

Sun Dec 8, 10:01pm

Sun Dec 8, 9:10pm

Sun Dec 8, 9:01pm

Sun Dec 8, 8:10pm

Sun Dec 8, 8:00pm

Sun Dec 8, 7:10pm

Sun Dec 8, 7:00pm

Sun Dec 8, 6:10pm

Sun Dec 8, 6:01pm

Sun Dec 8, 5:10pm

Sun Dec 8, 5:00pm

Sun Dec 8, 4:10pm

Sun Dec 8, 4:01pm

Sun Dec 8, 3:10pm

Sun Dec 8, 3:01pm

Sun Dec 8, 2:10pm

Sun Dec 8, 2:01pm

Sun Dec 8, 1:10pm

Sun Dec 8, 1:00pm

Sun Dec 8, 12:10pm

Sun Dec 8, 12:01pm

Sun Dec 8, 11:10am

Sun Dec 8, 11:00am

Sun Dec 8, 10:10am

Sun Dec 8, 10:01am

Sun Dec 8, 9:10am

Sun Dec 8, 9:00am

Sun Dec 8, 8:10am

Sun Dec 8, 8:00am

Sun Dec 8, 7:10am

Sun Dec 8, 7:00am

Sun Dec 8, 6:10am

Sun Dec 8, 6:00am

Sun Dec 8, 5:10am

Sun Dec 8, 5:00am

Sun Dec 8, 4:10am

Sun Dec 8, 4:00am

Sun Dec 8, 3:10am

Sun Dec 8, 3:00am

Sun Dec 8, 2:10am

Sun Dec 8, 2:00am

Sun Dec 8, 1:10am

Sun Dec 8, 1:00am

Sun Dec 8, 12:10am

Sun Dec 8, 12:01am

Sat Dec 7, 11:10pm

Sat Dec 7, 11:00pm

Sat Dec 7, 10:10pm

Sat Dec 7, 10:00pm

Sat Dec 7, 9:10pm

Sat Dec 7, 9:00pm

Sat Dec 7, 8:10pm

Sat Dec 7, 8:00pm

Sat Dec 7, 7:10pm

Sat Dec 7, 7:00pm

Sat Dec 7, 6:10pm

Sat Dec 7, 6:00pm

Sat Dec 7, 5:10pm

Sat Dec 7, 5:00pm

Sat Dec 7, 4:10pm

Meta data:

ID: c1c175d8-11ac-468c-b4e7-d17c6e3ebf82
Link: https://api.weather.gov/products/c1c175d8-11ac-468c-b4e7-d17c6e3ebf82